Location: ??
(34.9170°N, 135.5016°E)
Time: 11:50:46
(UTC+00:00)

CENTAUR R/B - Pass Details

Date: 29 October 2020
Orbit: 749 x 1439 km, 63.5° (Epoch: 22 November)

Event Time Altitude Azimuth Distance (km) Brightness Sun altitude
Exits shadow 19:08:29 18° 342° (NNW) 2,272 4.2 -26.8°
Drops below altitude 10° 19:11:31 10° 6° (N) 2,927 5.1 -26.2°
Sets 19:15:16 0° 23° (NNE) 4,029 6.0 -25.4°
